SL-16 DEB, 22397

Orbit data source: Space-Track

SL-16 DEB, 22397 is space debris in LEO originally from a launch on Fri, 25 Dec 1992 UTC launched from the Tyuratam Missile And Space Complex (TTMTR). Debris objects in space refer to the collection of defunct objects orbiting the Earth. Examples of debris include non-operational satellites, rocket bodies, and fragments generated from explosions, collisions, or faulty payload assembly.

Loading next visibility...
Identifier
22397, 1992-093CN
Orbit
LEO
Country
Flag of CISCIS
Related business
Manufacturer
Unknown
Mission
Spacecraft
Bus & Motor
Unknown
Mass
Unknown
Launch date (UTC)
1992-12-25 (33 years ago)
Launch vehicle
Unknown
Launch site
Tyuratam Missile And Space Complex (TTMTR)
Object type
Payload
Rocket body
Debris
Shape & HBR
Unknown shape, 0.1 m
Radar Cross Section
Small (<0.1 m²)

Expand to show TLE details & history
Last TLE update: 22 hours ago

TLE from 22 hours ago
0 SL-16 DEB
1 22397U 92093CN  25351.54052269  .00001580  00000-0  61615-3 0  9991
2 22397  70.8003 153.3032 0032601 114.6740 245.7790 14.30989124703820
Epoch: 2025-12-17T12:58Z
TLE epoch observation values (Epoch: 2025-12-17T12:58:21.160Z)
Latitude
-0.00005°
Longitude
-127.6939°
Altitude
800.481 km
Speed
7.449 km/s
True Right ascension
10h 13m 12s
True Declination
0° 00' 00"
Sunlit
Object was in daylight at epoch
Visualization orbit readout
Latitude
Unknown
Longitude
Unknown
Altitude
Unknown
Speed
Unknown
Apparent Right ascension
Unknown
Apparent Declination
Unknown
Sunlit
N/A
Visualization observer readout
Local Sidereal Time
09:26:55
Azimuth
Unknown
Elevation
Unknown
Doppler factor
Unknown
Orbital elements
Apogee altitude
809.712 km
Perigee altitude
762.999 km
Semi-major axis
7,164.493 km
Eccentricity
0.00326
Inclination
70.8003°
RAAN
153.3032°
Arg. of periapsis
114.674°
True anomaly
245.43888°
Mean anomaly
245.779°
Eccentric anomaly
245.60888°
Mean motion
3.57903 °/min
Orbital period
100.59 mins
BSTAR
0.00061615
Loading maneuver chart data...
Computing Atmospheric mass density...
Loading historical data...
Loading historical data...
Loading historical data...
Loading historical data...
Loading historical data...
Loading historical data...
Loading historical data...

Documentation

Showing up to 5 results
|